Time,TemperatureF,DewpointF,PressureIn,WindDirection,WindDirectionDegrees,WindSpeedMPH,WindSpeedGustMPH,Humidity,HourlyPrecipIn,Conditions,Clouds,dailyrainin,SoftwareType,DateUTC
2013-02-03 00:04:00,37.4,36.9,30.34,NNW,342,2.0,4.0,98,0.00,,---,0.00,VWS V14.01,2013-02-03 08:04:00,
2013-02-03 00:09:00,37.5,37.2,30.34,NNW,346,2.0,4.0,99,0.00,,---,0.00,VWS V14.01,2013-02-03 08:09:00,
2013-02-03 00:14:00,37.5,37.2,30.34,North,355,1.0,2.0,99,0.00,,---,0.00,VWS V14.01,2013-02-03 08:14:00,
2013-02-03 00:19:00,37.7,37.5,30.34,North,5,1.0,3.0,99,0.00,,---,0.00,VWS V14.01,2013-02-03 08:19:00,
2013-02-03 00:24:00,37.8,37.5,30.33,North,9,0.0,0.0,99,0.00,,---,0.00,VWS V14.01,2013-02-03 08:24:00,
2013-02-03 00:29:00,37.9,37.6,30.33,North,9,2.0,2.0,99,0.00,,---,0.00,VWS V14.01,2013-02-03 08:29:00,
2013-02-03 00:34:00,37.9,37.6,30.33,ESE,108,2.0,5.0,99,0.00,,---,0.00,VWS V14.01,2013-02-03 08:34:00,
2013-02-03 00:39:00,37.9,37.6,30.33,SE,144,2.0,4.0,99,0.00,,---,0.00,VWS V14.01,2013-02-03 08:39:00,
2013-02-03 00:44:00,37.9,37.6,30.32,SE,140,2.0,4.0,99,0.00,,---,0.00,VWS V14.01,2013-02-03 08:44:00,
2013-02-03 00:49:00,37.8,37.5,30.33,SE,131,0.0,1.0,99,0.00,,---,0.00,VWS V14.01,2013-02-03 08:49:00,
2013-02-03 00:54:00,37.7,37.5,30.33,SE,131,2.0,2.0,99,0.00,,---,0.00,VWS V14.01,2013-02-03 08:54:00,
2013-02-03 00:59:00,37.6,37.3,30.33,ENE,76,2.0,2.0,99,0.00,,---,0.00,VWS V14.01,2013-02-03 08:59:00,
2013-02-03 01:04:00,37.6,37.3,30.34,ENE,61,1.0,2.0,99,0.00,,---,0.00,VWS V14.01,2013-02-03 09:04:00,
2013-02-03 01:09:00,37.5,37.0,30.33,ENE,61,3.0,3.0,98,0.00,,---,0.00,VWS V14.01,2013-02-03 09:09:00,
2013-02-03 01:14:00,37.4,36.9,30.33,ENE,61,1.0,3.0,98,0.00,,---,0.00,VWS V14.01,2013-02-03 09:14:00,
2013-02-03 01:19:00,37.3,36.8,30.33,ENE,61,1.0,2.0,98,0.00,,---,0.00,VWS V14.01,2013-02-03 09:19:00,
2013-02-03 01:24:00,37.1,36.6,30.34,NE,39,3.0,3.0,98,0.00,,---,0.00,VWS V14.01,2013-02-03 09:24:00,
2013-02-03 01:29:00,37.0,36.5,30.34,NE,39,2.0,3.0,98,0.00,,---,0.00,VWS V14.01,2013-02-03 09:29:00,
2013-02-03 01:34:00,37.0,36.8,30.34,NE,39,0.0,2.0,99,0.00,,---,0.00,VWS V14.01,2013-02-03 09:34:00,
2013-02-03 01:39:00,37.1,36.8,30.34,NE,39,1.0,3.0,99,0.00,,---,0.00,VWS V14.01,2013-02-03 09:39:00,
2013-02-03 01:44:00,37.1,36.8,30.33,NE,39,0.0,0.0,99,0.00,,---,0.00,VWS V14.01,2013-02-03 09:44:00,
2013-02-03 01:49:00,37.2,37.0,30.33,NE,39,1.0,1.0,99,0.00,,---,0.00,VWS V14.01,2013-02-03 09:49:00,
2013-02-03 01:54:00,37.2,37.0,30.33,East,79,0.0,2.0,99,0.00,,---,0.00,VWS V14.01,2013-02-03 09:54:00,
2013-02-03 01:59:00,37.3,37.0,30.33,East,79,1.0,1.0,99,0.00,,---,0.00,VWS V14.01,2013-02-03 09:59:00,
2013-02-03 02:04:00,37.2,37.0,30.33,East,79,0.0,1.0,99,0.00,,---,0.00,VWS V14.01,2013-02-03 10:04:00,
2013-02-03 02:09:00,37.0,36.8,30.33,East,80,0.0,1.0,99,0.00,,---,0.00,VWS V14.01,2013-02-03 10:09:00,
2013-02-03 02:14:00,37.1,36.8,30.33,SSW,206,0.0,3.0,99,0.00,,---,0.00,VWS V14.01,2013-02-03 10:14:00,
2013-02-03 02:19:00,37.4,37.2,30.33,SW,217,3.0,5.0,99,0.00,,---,0.00,VWS V14.01,2013-02-03 10:19:00,
2013-02-03 02:24:00,37.8,37.5,30.33,SSW,207,2.0,3.0,99,0.00,,---,0.00,VWS V14.01,2013-02-03 10:24:00,
2013-02-03 02:29:00,37.9,37.6,30.33,South,178,4.0,5.0,99,0.00,,---,0.00,VWS V14.01,2013-02-03 10:29:00,
2013-02-03 02:34:00,37.9,37.6,30.33,South,187,0.0,2.0,99,0.00,,---,0.00,VWS V14.01,2013-02-03 10:34:00,
2013-02-03 02:39:00,37.9,37.6,30.34,South,187,2.0,2.0,99,0.00,,---,0.00,VWS V14.01,2013-02-03 10:39:00,
2013-02-03 02:44:00,38.3,38.0,30.34,South,187,2.0,3.0,99,0.00,,---,0.00,VWS V14.01,2013-02-03 10:44:00,
2013-02-03 02:49:00,38.8,38.5,30.34,South,187,2.0,4.0,99,0.00,,---,0.00,VWS V14.01,2013-02-03 10:49:00,
2013-02-03 02:54:00,39.2,38.9,30.33,South,179,4.0,5.0,99,0.00,,---,0.00,VWS V14.01,2013-02-03 10:54:00,
2013-02-03 02:59:00,39.9,39.6,30.32,SSW,208,1.0,7.0,99,0.00,,---,0.00,VWS V14.01,2013-02-03 10:59:00,
2013-02-03 03:04:00,40.6,40.3,30.32,South,184,3.0,4.0,99,0.00,,---,0.00,VWS V14.01,2013-02-03 11:04:00,
2013-02-03 03:09:00,41.1,40.8,30.33,SSW,198,1.0,3.0,99,0.00,,---,0.00,VWS V14.01,2013-02-03 11:09:00,
2013-02-03 03:14:00,41.3,41.0,30.32,SSW,198,2.0,3.0,99,0.00,,---,0.00,VWS V14.01,2013-02-03 11:14:00,
2013-02-03 03:19:00,41.5,41.2,30.32,SSW,198,3.0,4.0,99,0.00,,---,0.00,VWS V14.01,2013-02-03 11:19:00,
2013-02-03 03:24:00,41.7,41.4,30.32,South,169,1.0,4.0,99,0.00,,---,0.00,VWS V14.01,2013-02-03 11:24:00,
2013-02-03 03:29:00,41.8,41.5,30.32,South,169,2.0,4.0,99,0.00,,---,0.00,VWS V14.01,2013-02-03 11:29:00,
2013-02-03 03:34:00,41.9,41.6,30.31,SSE,167,4.0,5.0,99,0.00,,---,0.00,VWS V14.01,2013-02-03 11:34:00,
2013-02-03 03:39:00,42.0,41.7,30.31,South,180,1.0,6.0,99,0.00,,---,0.00,VWS V14.01,2013-02-03 11:39:00,
2013-02-03 03:44:00,42.0,41.7,30.31,SSE,163,0.0,1.0,99,0.00,,---,0.00,VWS V14.01,2013-02-03 11:44:00,
2013-02-03 03:49:00,42.1,41.8,30.31,SSE,159,2.0,4.0,99,0.00,,---,0.00,VWS V14.01,2013-02-03 11:49:00,
2013-02-03 03:54:00,42.1,41.8,30.31,SSE,159,0.0,0.0,99,0.00,,---,0.00,VWS V14.01,2013-02-03 11:54:00,
2013-02-03 03:59:00,42.0,41.7,30.31,SSE,159,0.0,1.0,99,0.00,,---,0.00,VWS V14.01,2013-02-03 11:59:00,
2013-02-03 04:04:00,41.9,41.6,30.32,SSE,159,0.0,2.0,99,0.00,,---,0.00,VWS V14.01,2013-02-03 12:04:00,
2013-02-03 04:09:00,41.6,41.3,30.32,SSE,158,0.0,1.0,99,0.00,,---,0.00,VWS V14.01,2013-02-03 12:09:00,
2013-02-03 04:14:00,41.1,40.8,30.33,SSE,158,0.0,1.0,99,0.00,,---,0.00,VWS V14.01,2013-02-03 12:14:00,
2013-02-03 04:19:00,40.8,40.5,30.33,SSE,158,0.0,0.0,99,0.00,,---,0.00,VWS V14.01,2013-02-03 12:19:00,
2013-02-03 04:24:00,40.6,40.3,30.33,ENE,57,4.0,5.0,99,0.00,,---,0.00,VWS V14.01,2013-02-03 12:24:00,
2013-02-03 04:29:00,40.4,40.1,30.33,NE,50,2.0,3.0,99,0.00,,---,0.00,VWS V14.01,2013-02-03 12:29:00,
2013-02-03 04:34:00,40.2,39.9,30.33,NE,50,3.0,3.0,99,0.00,,---,0.00,VWS V14.01,2013-02-03 12:34:00,
2013-02-03 04:39:00,40.1,39.6,30.33,East,88,0.0,0.0,98,0.00,,---,0.00,VWS V14.01,2013-02-03 12:39:00,
2013-02-03 04:44:00,39.9,39.4,30.33,East,87,0.0,2.0,98,0.00,,---,0.00,VWS V14.01,2013-02-03 12:44:00,
2013-02-03 04:49:00,39.7,39.2,30.33,ENE,76,3.0,4.0,98,0.00,,---,0.00,VWS V14.01,2013-02-03 12:49:00,
2013-02-03 04:54:00,39.5,39.0,30.34,ENE,76,3.0,5.0,98,0.00,,---,0.00,VWS V14.01,2013-02-03 12:54:00,
2013-02-03 04:59:00,39.3,38.8,30.34,ENE,69,1.0,2.0,98,0.00,,---,0.00,VWS V14.01,2013-02-03 12:59:00,
2013-02-03 05:04:00,39.0,38.5,30.34,ENE,69,0.0,0.0,98,0.00,,---,0.00,VWS V14.01,2013-02-03 13:04:00,
2013-02-03 05:09:00,38.9,38.4,30.33,ENE,62,5.0,7.0,98,0.00,,---,0.00,VWS V14.01,2013-02-03 13:09:00,
2013-02-03 05:14:00,38.8,38.3,30.33,ENE,68,4.0,6.0,98,0.00,,---,0.00,VWS V14.01,2013-02-03 13:14:00,
2013-02-03 05:19:00,38.6,38.1,30.33,East,87,2.0,2.0,98,0.00,,---,0.00,VWS V14.01,2013-02-03 13:19:00,
2013-02-03 05:24:00,38.8,38.3,30.33,ENE,63,3.0,5.0,98,0.00,,---,0.00,VWS V14.01,2013-02-03 13:24:00,
2013-02-03 05:29:00,38.9,38.4,30.33,ENE,69,5.0,6.0,98,0.00,,---,0.00,VWS V14.01,2013-02-03 13:29:00,
2013-02-03 05:34:00,38.9,38.6,30.33,ENE,76,5.0,7.0,99,0.00,,---,0.00,VWS V14.01,2013-02-03 13:34:00,
2013-02-03 05:39:00,38.9,38.6,30.33,ENE,76,1.0,5.0,99,0.00,,---,0.00,VWS V14.01,2013-02-03 13:39:00,
2013-02-03 05:44:00,39.0,38.7,30.32,ENE,76,1.0,2.0,99,0.00,,---,0.00,VWS V14.01,2013-02-03 13:44:00,
2013-02-03 05:49:00,39.1,38.8,30.32,ENE,76,2.0,2.0,99,0.00,,---,0.00,VWS V14.01,2013-02-03 13:49:00,
2013-02-03 05:54:00,39.1,38.8,30.32,ENE,78,3.0,3.0,99,0.00,,---,0.00,VWS V14.01,2013-02-03 13:54:00,
2013-02-03 05:59:00,39.4,39.1,30.32,East,87,0.0,0.0,99,0.00,,---,0.00,VWS V14.01,2013-02-03 13:59:00,
2013-02-03 06:04:00,39.4,39.1,30.32,East,87,0.0,0.0,99,0.00,,---,0.00,VWS V14.01,2013-02-03 14:04:00,
2013-02-03 06:09:00,39.3,39.0,30.32,East,87,2.0,2.0,99,0.00,,---,0.00,VWS V14.01,2013-02-03 14:09:00,
2013-02-03 06:14:00,39.3,39.0,30.33,East,87,0.0,1.0,99,0.00,,---,0.00,VWS V14.01,2013-02-03 14:14:00,
2013-02-03 06:19:00,39.4,39.1,30.32,East,87,0.0,2.0,99,0.00,,---,0.00,VWS V14.01,2013-02-03 14:19:00,
2013-02-03 06:24:00,39.4,39.1,30.33,East,87,2.0,3.0,99,0.00,,---,0.00,VWS V14.01,2013-02-03 14:24:00,
2013-02-03 06:29:00,39.2,38.9,30.34,ENE,65,1.0,2.0,99,0.00,,---,0.00,VWS V14.01,2013-02-03 14:29:00,
2013-02-03 06:34:00,39.3,39.0,30.34,ENE,65,3.0,3.0,99,0.00,,---,0.00,VWS V14.01,2013-02-03 14:34:00,
2013-02-03 06:39:00,39.3,39.0,30.34,ENE,65,0.0,3.0,99,0.00,,---,0.00,VWS V14.01,2013-02-03 14:39:00,
2013-02-03 06:44:00,39.4,39.1,30.34,ENE,65,1.0,1.0,99,0.00,,---,0.00,VWS V14.01,2013-02-03 14:44:00,
2013-02-03 06:49:00,39.4,39.1,30.34,ENE,65,2.0,2.0,99,0.00,,---,0.00,VWS V14.01,2013-02-03 14:49:00,
2013-02-03 06:54:00,39.3,39.0,30.33,ENE,65,0.0,0.0,99,0.00,,---,0.00,VWS V14.01,2013-02-03 14:54:00,
2013-02-03 06:59:00,39.3,39.0,30.33,ENE,65,0.0,0.0,99,0.00,,---,0.00,VWS V14.01,2013-02-03 14:59:00,
2013-02-03 07:04:00,39.3,39.0,30.33,ENE,65,0.0,0.0,99,0.00,,---,0.00,VWS V14.01,2013-02-03 15:04:00,
2013-02-03 07:09:00,39.4,39.1,30.33,ENE,65,0.0,0.0,99,0.00,,---,0.00,VWS V14.01,2013-02-03 15:09:00,
2013-02-03 07:14:00,39.5,39.2,30.33,ENE,65,0.0,0.0,99,0.00,,---,0.00,VWS V14.01,2013-02-03 15:14:00,
2013-02-03 07:19:00,39.6,39.3,30.33,ENE,65,0.0,1.0,99,0.00,,---,0.00,VWS V14.01,2013-02-03 15:19:00,
2013-02-03 07:24:00,39.7,39.4,30.33,ENE,65,2.0,2.0,99,0.00,,---,0.00,VWS V14.01,2013-02-03 15:24:00,
2013-02-03 07:29:00,39.8,39.5,30.33,ENE,65,1.0,2.0,99,0.00,,---,0.00,VWS V14.01,2013-02-03 15:29:00,
2013-02-03 07:34:00,39.8,39.5,30.33,ENE,61,3.0,4.0,99,0.00,,---,0.00,VWS V14.01,2013-02-03 15:34:00,
2013-02-03 07:39:00,40.0,39.7,30.34,ENE,61,2.0,3.0,99,0.00,,---,0.00,VWS V14.01,2013-02-03 15:39:00,
2013-02-03 07:44:00,40.1,39.8,30.33,ENE,66,4.0,5.0,99,0.00,,---,0.00,VWS V14.01,2013-02-03 15:44:00,
2013-02-03 07:49:00,40.1,39.8,30.33,ENE,69,2.0,2.0,99,0.00,,---,0.00,VWS V14.01,2013-02-03 15:49:00,
2013-02-03 07:54:00,40.0,39.7,30.34,ENE,69,1.0,2.0,99,0.00,,---,0.00,VWS V14.01,2013-02-03 15:54:00,
2013-02-03 07:59:00,40.0,39.7,30.34,ENE,69,0.0,0.0,99,0.00,,---,0.00,VWS V14.01,2013-02-03 15:59:00,
2013-02-03 08:04:00,40.0,39.7,30.34,ENE,69,0.0,1.0,99,0.00,,---,0.00,VWS V14.01,2013-02-03 16:04:00,
2013-02-03 08:09:00,40.1,39.8,30.34,ENE,69,0.0,1.0,99,0.00,,---,0.00,VWS V14.01,2013-02-03 16:09:00,
2013-02-03 08:14:00,40.1,39.8,30.34,ENE,69,2.0,3.0,99,0.00,,---,0.00,VWS V14.01,2013-02-03 16:14:00,
2013-02-03 08:19:00,40.2,39.9,30.34,ENE,69,0.0,0.0,99,0.00,,---,0.00,VWS V14.01,2013-02-03 16:19:00,
2013-02-03 08:24:00,40.4,40.1,30.34,ENE,69,0.0,0.0,99,0.00,,---,0.00,VWS V14.01,2013-02-03 16:24:00,
2013-02-03 08:29:00,40.9,40.6,30.34,ESE,102,4.0,4.0,99,0.00,,---,0.00,VWS V14.01,2013-02-03 16:29:00,
2013-02-03 08:34:00,41.2,40.9,30.34,ESE,123,0.0,4.0,99,0.00,,---,0.00,VWS V14.01,2013-02-03 16:34:00,
2013-02-03 08:39:00,41.5,41.2,30.34,SSE,154,0.0,4.0,99,0.00,,---,0.00,VWS V14.01,2013-02-03 16:39:00,
2013-02-03 08:44:00,41.8,41.5,30.34,SSE,154,1.0,2.0,99,0.00,,---,0.00,VWS V14.01,2013-02-03 16:44:00,
2013-02-03 08:49:00,42.0,41.7,30.34,SSE,154,0.0,1.0,99,0.00,,---,0.00,VWS V14.01,2013-02-03 16:49:00,
2013-02-03 08:54:00,41.9,41.6,30.34,SSE,154,0.0,1.0,99,0.00,,---,0.00,VWS V14.01,2013-02-03 16:54:00,
2013-02-03 08:59:00,42.0,41.7,30.34,SSE,154,0.0,1.0,99,0.00,,---,0.00,VWS V14.01,2013-02-03 16:59:00,
2013-02-03 09:04:00,41.8,41.5,30.35,SSE,154,1.0,1.0,99,0.00,,---,0.00,VWS V14.01,2013-02-03 17:04:00,
2013-02-03 09:09:00,41.6,41.3,30.35,SSE,154,1.0,2.0,99,0.00,,---,0.00,VWS V14.01,2013-02-03 17:09:00,
2013-02-03 09:14:00,41.6,41.3,30.35,SSE,154,0.0,0.0,99,0.00,,---,0.00,VWS V14.01,2013-02-03 17:14:00,
2013-02-03 09:19:00,41.6,41.3,30.35,SSE,154,0.0,1.0,99,0.00,,---,0.00,VWS V14.01,2013-02-03 17:19:00,
2013-02-03 09:24:00,42.0,41.7,30.35,SSE,154,0.0,1.0,99,0.00,,---,0.00,VWS V14.01,2013-02-03 17:24:00,
2013-02-03 09:29:00,42.2,41.9,30.35,SSE,154,0.0,1.0,99,0.00,,---,0.00,VWS V14.01,2013-02-03 17:29:00,
2013-02-03 09:34:00,42.4,42.1,30.35,SSE,154,0.0,0.0,99,0.00,,---,0.00,VWS V14.01,2013-02-03 17:34:00,
2013-02-03 09:39:00,42.7,42.4,30.35,SSE,154,2.0,2.0,99,0.00,,---,0.00,VWS V14.01,2013-02-03 17:39:00,
2013-02-03 09:44:00,42.9,42.6,30.35,SE,146,1.0,4.0,99,0.00,,---,0.00,VWS V14.01,2013-02-03 17:44:00,
2013-02-03 09:49:00,43.0,42.7,30.34,SE,145,2.0,2.0,99,0.01,,---,0.01,VWS V14.01,2013-02-03 17:49:00,
2013-02-03 09:54:00,43.0,42.7,30.34,SE,144,2.0,4.0,99,0.01,,---,0.01,VWS V14.01,2013-02-03 17:54:00,
2013-02-03 09:59:00,42.9,42.6,30.34,SE,127,4.0,4.0,99,0.01,,---,0.01,VWS V14.01,2013-02-03 17:59:00,
2013-02-03 10:04:00,42.8,42.5,30.34,ESE,116,1.0,4.0,99,0.01,,---,0.01,VWS V14.01,2013-02-03 18:04:00,
2013-02-03 10:09:00,42.9,42.6,30.34,ESE,117,1.0,1.0,99,0.01,,---,0.01,VWS V14.01,2013-02-03 18:09:00,
2013-02-03 10:14:00,42.9,42.6,30.34,SE,132,0.0,2.0,99,0.01,,---,0.01,VWS V14.01,2013-02-03 18:14:00,
2013-02-03 10:19:00,43.1,42.8,30.34,SE,132,1.0,4.0,99,0.01,,---,0.01,VWS V14.01,2013-02-03 18:19:00,
2013-02-03 10:24:00,43.2,42.9,30.34,SE,130,2.0,4.0,99,0.01,,---,0.01,VWS V14.01,2013-02-03 18:24:00,
2013-02-03 10:29:00,43.3,43.0,30.34,SE,146,2.0,5.0,99,0.01,,---,0.01,VWS V14.01,2013-02-03 18:29:00,
2013-02-03 10:34:00,43.5,43.2,30.34,SE,145,5.0,6.0,99,0.01,,---,0.01,VWS V14.01,2013-02-03 18:34:00,
2013-02-03 10:39:00,43.7,43.4,30.34,SE,140,5.0,5.0,99,0.01,,---,0.01,VWS V14.01,2013-02-03 18:39:00,
2013-02-03 10:44:00,43.8,43.5,30.34,SSE,157,4.0,4.0,99,0.01,,---,0.01,VWS V14.01,2013-02-03 18:44:00,
2013-02-03 10:49:00,44.0,43.7,30.34,SSE,151,5.0,5.0,99,0.00,,---,0.01,VWS V14.01,2013-02-03 18:49:00,
2013-02-03 10:54:00,44.2,43.7,30.34,SSE,165,2.0,4.0,98,0.00,,---,0.01,VWS V14.01,2013-02-03 18:54:00,
2013-02-03 10:59:00,44.3,43.8,30.34,SSE,164,2.0,4.0,98,0.00,,---,0.01,VWS V14.01,2013-02-03 18:59:00,
2013-02-03 11:04:00,44.5,44.0,30.34,SSE,164,2.0,4.0,98,0.00,,---,0.01,VWS V14.01,2013-02-03 19:04:00,
2013-02-03 11:09:00,44.6,43.8,30.35,SSE,164,1.0,1.0,97,0.00,,---,0.01,VWS V14.01,2013-02-03 19:09:00,
2013-02-03 11:14:00,44.7,43.9,30.35,SSE,164,0.0,1.0,97,0.00,,---,0.01,VWS V14.01,2013-02-03 19:14:00,
2013-02-03 11:19:00,44.9,44.1,30.35,SSE,164,0.0,1.0,97,0.00,,---,0.01,VWS V14.01,2013-02-03 19:19:00,
2013-02-03 11:24:00,44.9,44.1,30.34,SSE,164,0.0,2.0,97,0.00,,---,0.01,VWS V14.01,2013-02-03 19:24:00,
2013-02-03 11:29:00,44.9,43.8,30.34,SSE,164,1.0,2.0,96,0.00,,---,0.01,VWS V14.01,2013-02-03 19:29:00,
2013-02-03 11:34:00,44.9,43.8,30.34,SSE,164,4.0,4.0,96,0.00,,---,0.01,VWS V14.01,2013-02-03 19:34:00,
2013-02-03 11:39:00,44.9,43.8,30.34,South,182,4.0,5.0,96,0.00,,---,0.01,VWS V14.01,2013-02-03 19:39:00,
2013-02-03 11:44:00,44.9,43.3,30.34,South,178,2.0,4.0,94,0.00,,---,0.01,VWS V14.01,2013-02-03 19:44:00,
2013-02-03 11:49:00,45.1,43.5,30.34,South,180,1.0,4.0,94,0.00,,---,0.01,VWS V14.01,2013-02-03 19:49:00,
2013-02-03 11:54:00,45.2,43.3,30.33,SSE,155,5.0,5.0,93,0.00,,---,0.01,VWS V14.01,2013-02-03 19:54:00,
2013-02-03 11:59:00,45.3,43.4,30.33,SSW,200,4.0,5.0,93,0.00,,---,0.01,VWS V14.01,2013-02-03 19:59:00,
2013-02-03 12:04:00,45.4,43.2,30.33,South,180,5.0,5.0,92,0.00,,---,0.01,VWS V14.01,2013-02-03 20:04:00,
2013-02-03 12:09:00,45.4,43.2,30.33,SSW,208,5.0,8.0,92,0.00,,---,0.01,VWS V14.01,2013-02-03 20:09:00,
2013-02-03 12:14:00,45.4,43.2,30.33,SSE,157,5.0,5.0,92,0.00,,---,0.01,VWS V14.01,2013-02-03 20:14:00,
2013-02-03 12:19:00,45.4,42.9,30.32,South,183,5.0,8.0,91,0.00,,---,0.01,VWS V14.01,2013-02-03 20:19:00,
2013-02-03 12:24:00,45.5,43.3,30.32,South,176,4.0,5.0,92,0.00,,---,0.01,VWS V14.01,2013-02-03 20:24:00,
2013-02-03 12:29:00,45.7,43.5,30.32,SSW,196,4.0,6.0,92,0.00,,---,0.01,VWS V14.01,2013-02-03 20:29:00,
2013-02-03 12:34:00,45.8,43.6,30.32,South,178,2.0,6.0,92,0.00,,---,0.01,VWS V14.01,2013-02-03 20:34:00,
2013-02-03 12:39:00,46.0,43.5,30.33,South,184,4.0,4.0,91,0.00,,---,0.01,VWS V14.01,2013-02-03 20:39:00,
2013-02-03 12:44:00,46.1,43.3,30.33,South,185,6.0,6.0,90,0.00,,---,0.01,VWS V14.01,2013-02-03 20:44:00,
2013-02-03 12:49:00,46.1,43.0,30.33,South,185,3.0,4.0,89,0.00,,---,0.01,VWS V14.01,2013-02-03 20:49:00,
2013-02-03 12:54:00,46.1,42.8,30.33,South,191,1.0,5.0,88,0.00,,---,0.01,VWS V14.01,2013-02-03 20:54:00,
2013-02-03 12:59:00,46.2,43.1,30.32,South,182,1.0,3.0,89,0.00,,---,0.01,VWS V14.01,2013-02-03 20:59:00,
2013-02-03 13:04:00,46.2,43.1,30.32,South,181,2.0,5.0,89,0.00,,---,0.01,VWS V14.01,2013-02-03 21:04:00,
2013-02-03 13:09:00,46.3,43.2,30.33,SSW,209,0.0,3.0,89,0.00,,---,0.01,VWS V14.01,2013-02-03 21:09:00,
2013-02-03 13:14:00,46.5,43.4,30.32,SSW,209,0.0,3.0,89,0.00,,---,0.01,VWS V14.01,2013-02-03 21:14:00,
2013-02-03 13:19:00,46.6,43.2,30.32,South,184,0.0,0.0,88,0.00,,---,0.01,VWS V14.01,2013-02-03 21:19:00,
2013-02-03 13:24:00,46.7,43.3,30.32,SSW,213,3.0,4.0,88,0.00,,---,0.01,VWS V14.01,2013-02-03 21:24:00,
2013-02-03 13:29:00,46.8,43.7,30.32,SSW,213,0.0,2.0,89,0.00,,---,0.01,VWS V14.01,2013-02-03 21:29:00,
2013-02-03 13:34:00,46.8,43.4,30.32,SSW,213,2.0,4.0,88,0.00,,---,0.01,VWS V14.01,2013-02-03 21:34:00,
2013-02-03 13:39:00,46.8,43.4,30.32,SSE,166,2.0,4.0,88,0.00,,---,0.01,VWS V14.01,2013-02-03 21:39:00,
2013-02-03 13:44:00,46.8,43.4,30.31,SSW,203,0.0,1.0,88,0.00,,---,0.01,VWS V14.01,2013-02-03 21:44:00,
2013-02-03 13:49:00,46.9,43.5,30.31,SSW,197,0.0,2.0,88,0.00,,---,0.01,VWS V14.01,2013-02-03 21:49:00,
2013-02-03 13:54:00,47.0,43.6,30.31,SSW,198,0.0,3.0,88,0.00,,---,0.01,VWS V14.01,2013-02-03 21:54:00,
2013-02-03 13:59:00,47.2,43.8,30.30,SSE,165,4.0,5.0,88,0.00,,---,0.01,VWS V14.01,2013-02-03 21:59:00,
2013-02-03 14:04:00,47.4,43.7,30.30,SSE,166,6.0,6.0,87,0.00,,---,0.01,VWS V14.01,2013-02-03 22:04:00,
2013-02-03 14:09:00,47.4,43.7,30.30,South,169,0.0,6.0,87,0.00,,---,0.01,VWS V14.01,2013-02-03 22:09:00,
2013-02-03 14:14:00,47.5,43.8,30.30,SSW,208,4.0,4.0,87,0.00,,---,0.01,VWS V14.01,2013-02-03 22:14:00,
2013-02-03 14:19:00,47.4,43.4,30.30,South,175,4.0,7.0,86,0.00,,---,0.01,VWS V14.01,2013-02-03 22:19:00,
2013-02-03 14:24:00,47.4,43.4,30.30,SW,217,4.0,7.0,86,0.00,,---,0.01,VWS V14.01,2013-02-03 22:24:00,
2013-02-03 14:29:00,47.4,43.4,30.30,South,171,6.0,6.0,86,0.00,,---,0.01,VWS V14.01,2013-02-03 22:29:00,
2013-02-03 14:34:00,47.5,43.5,30.30,South,171,7.0,8.0,86,0.00,,---,0.01,VWS V14.01,2013-02-03 22:34:00,
2013-02-03 14:39:00,47.5,43.5,30.30,SSW,198,6.0,6.0,86,0.00,,---,0.01,VWS V14.01,2013-02-03 22:39:00,
2013-02-03 14:44:00,47.5,43.5,30.30,SSW,203,4.0,6.0,86,0.00,,---,0.01,VWS V14.01,2013-02-03 22:44:00,
2013-02-03 14:49:00,47.5,43.5,30.30,South,189,5.0,7.0,86,0.00,,---,0.01,VWS V14.01,2013-02-03 22:49:00,
2013-02-03 14:54:00,47.4,43.4,30.30,SW,217,8.0,9.0,86,0.00,,---,0.01,VWS V14.01,2013-02-03 22:54:00,
2013-02-03 14:59:00,47.3,43.3,30.30,SSW,204,5.0,8.0,86,0.00,,---,0.01,VWS V14.01,2013-02-03 22:59:00,
2013-02-03 15:04:00,47.3,43.3,30.30,South,185,8.0,8.0,86,0.00,,---,0.01,VWS V14.01,2013-02-03 23:04:00,
2013-02-03 15:09:00,47.2,43.2,30.30,SSW,196,3.0,6.0,86,0.00,,---,0.01,VWS V14.01,2013-02-03 23:09:00,
2013-02-03 15:14:00,47.1,43.1,30.30,South,180,4.0,4.0,86,0.00,,---,0.01,VWS V14.01,2013-02-03 23:14:00,
2013-02-03 15:19:00,47.0,43.0,30.30,SW,214,4.0,7.0,86,0.00,,---,0.01,VWS V14.01,2013-02-03 23:19:00,
2013-02-03 15:24:00,47.0,43.3,30.30,SSW,198,6.0,7.0,87,0.00,,---,0.01,VWS V14.01,2013-02-03 23:24:00,
2013-02-03 15:29:00,47.0,43.0,30.30,SW,215,1.0,5.0,86,0.00,,---,0.01,VWS V14.01,2013-02-03 23:29:00,
2013-02-03 15:35:00,47.0,43.3,30.30,SSE,168,2.0,5.0,87,0.00,,---,0.01,VWS V14.01,2013-02-03 23:35:00,
2013-02-03 15:40:00,46.9,42.9,30.29,South,175,5.0,5.0,86,0.00,,---,0.01,VWS V14.01,2013-02-03 23:40:00,
2013-02-03 15:45:00,46.9,43.2,30.30,SSW,205,1.0,2.0,87,0.00,,---,0.01,VWS V14.01,2013-02-03 23:45:00,
2013-02-03 15:50:00,46.9,42.9,30.30,SSW,196,3.0,3.0,86,0.00,,---,0.01,VWS V14.01,2013-02-03 23:50:00,
2013-02-03 15:55:00,46.9,42.9,30.30,SSW,194,5.0,5.0,86,0.00,,---,0.01,VWS V14.01,2013-02-03 23:55:00,
2013-02-03 16:00:00,46.9,42.9,30.30,SSW,194,8.0,8.0,86,0.00,,---,0.01,VWS V14.01,2013-02-04 00:00:00,
2013-02-03 16:05:00,46.9,42.9,30.30,SSW,192,4.0,5.0,86,0.00,,---,0.01,VWS V14.01,2013-02-04 00:05:00,
2013-02-03 16:10:00,46.9,42.9,30.30,South,171,7.0,7.0,86,0.00,,---,0.01,VWS V14.01,2013-02-04 00:10:00,
2013-02-03 16:15:00,46.9,42.9,30.30,SSW,194,4.0,6.0,86,0.00,,---,0.01,VWS V14.01,2013-02-04 00:15:00,
2013-02-03 16:20:00,46.8,42.8,30.30,South,188,6.0,7.0,86,0.00,,---,0.01,VWS V14.01,2013-02-04 00:20:00,
2013-02-03 16:25:00,46.8,42.8,30.29,South,189,2.0,3.0,86,0.00,,---,0.01,VWS V14.01,2013-02-04 00:25:00,
2013-02-03 16:30:00,46.8,42.8,30.29,SSW,209,3.0,5.0,86,0.00,,---,0.01,VWS V14.01,2013-02-04 00:30:00,
2013-02-03 16:35:00,46.7,42.7,30.29,South,184,0.0,2.0,86,0.00,,---,0.01,VWS V14.01,2013-02-04 00:35:00,
2013-02-03 16:40:00,46.6,42.6,30.29,SSW,210,2.0,3.0,86,0.00,,---,0.01,VWS V14.01,2013-02-04 00:40:00,
2013-02-03 16:45:00,46.5,42.5,30.29,South,182,3.0,4.0,86,0.00,,---,0.01,VWS V14.01,2013-02-04 00:45:00,
2013-02-03 16:50:00,46.6,42.9,30.29,SSE,167,6.0,7.0,87,0.00,,---,0.01,VWS V14.01,2013-02-04 00:50:00,
2013-02-03 16:55:00,46.5,42.8,30.29,South,178,4.0,9.0,87,0.00,,---,0.01,VWS V14.01,2013-02-04 00:55:00,
2013-02-03 17:00:00,46.5,42.8,30.29,SE,142,4.0,8.0,87,0.00,,---,0.01,VWS V14.01,2013-02-04 01:00:00,
2013-02-03 17:05:00,46.4,42.8,30.29,South,180,4.0,8.0,87,0.00,,---,0.01,VWS V14.01,2013-02-04 01:05:00,
2013-02-03 17:10:00,46.4,42.8,30.29,SSW,201,5.0,6.0,87,0.00,,---,0.01,VWS V14.01,2013-02-04 01:10:00,
2013-02-03 17:15:00,46.4,42.8,30.30,South,189,4.0,5.0,87,0.00,,---,0.01,VWS V14.01,2013-02-04 01:15:00,
2013-02-03 17:20:00,46.4,42.8,30.29,SSW,208,5.0,6.0,87,0.00,,---,0.01,VWS V14.01,2013-02-04 01:20:00,
2013-02-03 17:25:00,46.3,42.7,30.29,South,188,2.0,4.0,87,0.00,,---,0.01,VWS V14.01,2013-02-04 01:25:00,
2013-02-03 17:30:00,46.3,42.7,30.29,SSW,210,2.0,4.0,87,0.00,,---,0.01,VWS V14.01,2013-02-04 01:30:00,
2013-02-03 17:35:00,46.3,43.0,30.29,SSW,194,6.0,6.0,88,0.00,,---,0.01,VWS V14.01,2013-02-04 01:35:00,
2013-02-03 17:40:00,46.3,43.0,30.29,SSW,209,4.0,4.0,88,0.00,,---,0.01,VWS V14.01,2013-02-04 01:40:00,
2013-02-03 17:45:00,46.2,42.8,30.29,SSW,205,5.0,5.0,88,0.00,,---,0.01,VWS V14.01,2013-02-04 01:45:00,
2013-02-03 17:50:00,46.1,42.8,30.29,SSW,208,5.0,7.0,88,0.00,,---,0.01,VWS V14.01,2013-02-04 01:50:00,
2013-02-03 17:55:00,46.1,42.8,30.29,South,180,8.0,8.0,88,0.00,,---,0.01,VWS V14.01,2013-02-04 01:55:00,
2013-02-03 18:00:00,46.1,42.8,30.29,South,188,4.0,5.0,88,0.00,,---,0.01,VWS V14.01,2013-02-04 02:00:00,
2013-02-03 18:05:00,46.1,42.8,30.29,South,182,2.0,3.0,88,0.00,,---,0.01,VWS V14.01,2013-02-04 02:05:00,
2013-02-03 18:10:00,46.0,43.0,30.29,SSW,196,1.0,3.0,89,0.00,,---,0.01,VWS V14.01,2013-02-04 02:10:00,
2013-02-03 18:15:00,45.8,43.0,30.29,SSW,208,5.0,6.0,90,0.00,,---,0.01,VWS V14.01,2013-02-04 02:15:00,
2013-02-03 18:20:00,45.7,42.9,30.29,SSW,194,4.0,6.0,90,0.00,,---,0.01,VWS V14.01,2013-02-04 02:20:00,
2013-02-03 18:25:00,45.6,43.1,30.29,SSW,208,3.0,6.0,91,0.00,,---,0.01,VWS V14.01,2013-02-04 02:25:00,
2013-02-03 18:30:00,45.5,43.0,30.29,South,190,3.0,5.0,91,0.00,,---,0.01,VWS V14.01,2013-02-04 02:30:00,
2013-02-03 18:35:00,45.4,42.9,30.29,SSW,192,1.0,2.0,91,0.00,,---,0.01,VWS V14.01,2013-02-04 02:35:00,
2013-02-03 18:40:00,45.3,43.1,30.29,South,180,0.0,0.0,92,0.00,,---,0.01,VWS V14.01,2013-02-04 02:40:00,
2013-02-03 18:45:00,45.2,43.0,30.29,SSW,199,5.0,5.0,92,0.00,,---,0.01,VWS V14.01,2013-02-04 02:45:00,
2013-02-03 18:50:00,45.1,42.9,30.29,SSW,193,3.0,4.0,92,0.01,,---,0.02,VWS V14.01,2013-02-04 02:50:00,
2013-02-03 18:55:00,45.0,43.1,30.29,South,182,4.0,4.0,93,0.01,,---,0.02,VWS V14.01,2013-02-04 02:55:00,
2013-02-03 19:00:00,44.9,43.0,30.28,South,180,5.0,7.0,93,0.01,,---,0.02,VWS V14.01,2013-02-04 03:00:00,
2013-02-03 19:05:00,44.9,43.3,30.29,SSW,194,3.0,5.0,94,0.01,,---,0.02,VWS V14.01,2013-02-04 03:05:00,
2013-02-03 19:10:00,44.7,43.1,30.28,South,180,0.0,4.0,94,0.01,,---,0.02,VWS V14.01,2013-02-04 03:10:00,
2013-02-03 19:15:00,44.7,43.1,30.28,SSW,196,2.0,7.0,94,0.01,,---,0.02,VWS V14.01,2013-02-04 03:15:00,
2013-02-03 19:20:00,44.6,43.3,30.28,South,176,2.0,6.0,95,0.01,,---,0.02,VWS V14.01,2013-02-04 03:20:00,
2013-02-03 19:25:00,44.6,43.3,30.28,SSW,194,0.0,3.0,95,0.01,,---,0.02,VWS V14.01,2013-02-04 03:25:00,
2013-02-03 19:30:00,44.5,43.2,30.28,South,173,2.0,6.0,95,0.02,,---,0.03,VWS V14.01,2013-02-04 03:30:00,
2013-02-03 19:35:00,44.5,43.2,30.28,South,185,4.0,6.0,95,0.02,,---,0.03,VWS V14.01,2013-02-04 03:35:00,
2013-02-03 19:40:00,44.5,43.2,30.27,SSE,162,4.0,8.0,95,0.02,,---,0.03,VWS V14.01,2013-02-04 03:40:00,
2013-02-03 19:45:00,44.4,43.1,30.27,SE,140,4.0,4.0,95,0.02,,---,0.03,VWS V14.01,2013-02-04 03:45:00,
2013-02-03 19:50:00,44.4,43.1,30.27,South,184,4.0,4.0,95,0.01,,---,0.03,VWS V14.01,2013-02-04 03:50:00,
2013-02-03 19:55:00,44.4,43.3,30.27,South,184,3.0,6.0,96,0.01,,---,0.03,VWS V14.01,2013-02-04 03:55:00,
2013-02-03 20:00:00,44.4,43.3,30.27,SSW,198,2.0,5.0,96,0.01,,---,0.03,VWS V14.01,2013-02-04 04:00:00,
2013-02-03 20:05:00,44.4,43.3,30.26,SSW,194,5.0,7.0,96,0.01,,---,0.03,VWS V14.01,2013-02-04 04:05:00,
2013-02-03 20:10:00,44.4,43.3,30.26,SSW,194,6.0,6.0,96,0.02,,---,0.04,VWS V14.01,2013-02-04 04:10:00,
2013-02-03 20:15:00,44.4,43.3,30.26,South,176,4.0,4.0,96,0.02,,---,0.04,VWS V14.01,2013-02-04 04:15:00,
2013-02-03 20:20:00,44.3,43.2,30.26,South,182,4.0,7.0,96,0.02,,---,0.04,VWS V14.01,2013-02-04 04:20:00,
2013-02-03 20:25:00,44.4,43.3,30.26,SSW,211,5.0,7.0,96,0.02,,---,0.04,VWS V14.01,2013-02-04 04:25:00,
2013-02-03 20:30:00,44.3,43.2,30.26,SSW,194,6.0,9.0,96,0.01,,---,0.04,VWS V14.01,2013-02-04 04:30:00,
2013-02-03 20:35:00,44.3,43.2,30.26,SW,215,4.0,7.0,96,0.01,,---,0.04,VWS V14.01,2013-02-04 04:35:00,
2013-02-03 20:40:00,44.3,43.2,30.26,SSW,196,3.0,5.0,96,0.01,,---,0.04,VWS V14.01,2013-02-04 04:40:00,
2013-02-03 20:45:00,44.4,43.3,30.26,SSW,203,0.0,7.0,96,0.01,,---,0.04,VWS V14.01,2013-02-04 04:45:00,
2013-02-03 20:50:00,44.3,43.2,30.26,South,188,3.0,4.0,96,0.01,,---,0.04,VWS V14.01,2013-02-04 04:50:00,
2013-02-03 20:55:00,44.3,43.2,30.26,SSW,204,3.0,4.0,96,0.01,,---,0.04,VWS V14.01,2013-02-04 04:55:00,
2013-02-03 21:00:00,44.3,43.2,30.26,SSW,196,5.0,5.0,96,0.01,,---,0.04,VWS V14.01,2013-02-04 05:00:00,
2013-02-03 21:01:00,44.4,43.3,30.26,SW,225,6.0,7.0,96,0.01,,---,0.04,VWS V14.01,2013-02-04 05:01:00,
2013-02-03 21:02:00,44.3,43.2,30.26,SSE,160,7.0,7.0,96,0.01,,---,0.04,VWS V14.01,2013-02-04 05:02:00,
2013-02-03 21:03:00,44.3,43.2,30.26,SSW,192,7.0,8.0,96,0.01,,---,0.04,VWS V14.01,2013-02-04 05:03:00,
2013-02-03 21:08:00,44.4,43.3,30.26,SSW,207,6.0,6.0,96,0.01,,---,0.04,VWS V14.01,2013-02-04 05:08:00,
2013-02-03 21:13:00,44.3,43.2,30.26,South,179,2.0,4.0,96,0.00,,---,0.04,VWS V14.01,2013-02-04 05:13:00,
2013-02-03 21:18:00,44.3,43.2,30.26,SSW,205,6.0,6.0,96,0.00,,---,0.04,VWS V14.01,2013-02-04 05:18:00,
2013-02-03 21:23:00,44.3,43.2,30.27,SW,217,3.0,6.0,96,0.00,,---,0.04,VWS V14.01,2013-02-04 05:23:00,
2013-02-03 21:28:00,44.3,43.2,30.27,SSW,196,2.0,4.0,96,0.00,,---,0.04,VWS V14.01,2013-02-04 05:28:00,
2013-02-03 21:33:00,44.3,43.2,30.27,SW,232,4.0,6.0,96,0.00,,---,0.04,VWS V14.01,2013-02-04 05:33:00,
2013-02-03 21:38:00,44.3,43.2,30.27,SSW,210,7.0,8.0,96,0.00,,---,0.04,VWS V14.01,2013-02-04 05:38:00,
2013-02-03 21:43:00,44.4,43.3,30.27,SSW,198,5.0,9.0,96,0.00,,---,0.04,VWS V14.01,2013-02-04 05:43:00,
2013-02-03 21:48:00,44.4,43.1,30.27,SSW,196,3.0,8.0,95,0.00,,---,0.04,VWS V14.01,2013-02-04 05:48:00,
2013-02-03 21:53:00,44.5,43.2,30.27,SW,228,5.0,9.0,95,0.00,,---,0.04,VWS V14.01,2013-02-04 05:53:00,
2013-02-03 21:58:00,44.5,43.2,30.27,SSW,199,5.0,5.0,95,0.00,,---,0.04,VWS V14.01,2013-02-04 05:58:00,
2013-02-03 22:03:00,44.5,43.2,30.27,SSW,200,3.0,5.0,95,0.00,,---,0.04,VWS V14.01,2013-02-04 06:03:00,
2013-02-03 22:08:00,44.5,43.2,30.26,SSW,209,3.0,8.0,95,0.00,,---,0.04,VWS V14.01,2013-02-04 06:08:00,
2013-02-03 22:13:00,44.5,43.2,30.26,SW,223,5.0,8.0,95,0.00,,---,0.04,VWS V14.01,2013-02-04 06:13:00,
2013-02-03 22:18:00,44.5,43.2,30.27,SW,220,3.0,8.0,95,0.00,,---,0.04,VWS V14.01,2013-02-04 06:18:00,
2013-02-03 22:23:00,44.4,43.1,30.26,SW,219,7.0,7.0,95,0.00,,---,0.04,VWS V14.01,2013-02-04 06:23:00,
2013-02-03 22:28:00,44.4,43.1,30.26,SSW,197,7.0,10.0,95,0.00,,---,0.04,VWS V14.01,2013-02-04 06:28:00,
2013-02-03 22:33:00,44.4,43.1,30.26,South,176,8.0,9.0,95,0.00,,---,0.04,VWS V14.01,2013-02-04 06:33:00,
2013-02-03 22:38:00,44.4,43.1,30.25,SSW,200,5.0,7.0,95,0.00,,---,0.04,VWS V14.01,2013-02-04 06:38:00,
2013-02-03 22:43:00,44.4,43.1,30.25,SSW,207,5.0,7.0,95,0.00,,---,0.04,VWS V14.01,2013-02-04 06:43:00,
2013-02-03 22:48:00,44.3,43.0,30.26,South,182,4.0,7.0,95,0.00,,---,0.04,VWS V14.01,2013-02-04 06:48:00,
2013-02-03 22:53:00,44.4,43.1,30.26,SW,227,3.0,8.0,95,0.00,,---,0.04,VWS V14.01,2013-02-04 06:53:00,
2013-02-03 22:58:00,44.4,43.1,30.26,SW,214,4.0,6.0,95,0.00,,---,0.04,VWS V14.01,2013-02-04 06:58:00,
2013-02-03 23:03:00,44.5,43.2,30.26,South,186,8.0,8.0,95,0.00,,---,0.04,VWS V14.01,2013-02-04 07:03:00,
2013-02-03 23:08:00,44.5,43.2,30.26,SSW,206,6.0,11.0,95,0.00,,---,0.04,VWS V14.01,2013-02-04 07:08:00,
2013-02-03 23:13:00,44.5,43.2,30.26,SSW,197,6.0,10.0,95,0.00,,---,0.04,VWS V14.01,2013-02-04 07:13:00,
2013-02-03 23:18:00,44.6,43.3,30.27,SSW,199,3.0,8.0,95,0.00,,---,0.04,VWS V14.01,2013-02-04 07:18:00,
2013-02-03 23:23:00,44.6,43.3,30.27,SSW,213,7.0,7.0,95,0.00,,---,0.04,VWS V14.01,2013-02-04 07:23:00,
2013-02-03 23:28:00,44.6,43.3,30.26,SSW,202,4.0,7.0,95,0.00,,---,0.04,VWS V14.01,2013-02-04 07:28:00,
2013-02-03 23:33:00,44.6,43.0,30.26,South,181,4.0,11.0,94,0.00,,---,0.04,VWS V14.01,2013-02-04 07:33:00,
2013-02-03 23:38:00,44.6,43.0,30.25,SSW,196,7.0,12.0,94,0.00,,---,0.04,VWS V14.01,2013-02-04 07:38:00,
2013-02-03 23:43:00,44.6,43.0,30.25,SW,217,6.0,7.0,94,0.00,,---,0.04,VWS V14.01,2013-02-04 07:43:00,
2013-02-03 23:48:00,44.6,43.0,30.25,SSW,198,2.0,4.0,94,0.00,,---,0.04,VWS V14.01,2013-02-04 07:48:00,
2013-02-03 23:53:00,44.5,42.9,30.25,SSW,202,3.0,6.0,94,0.00,,---,0.04,VWS V14.01,2013-02-04 07:53:00,
2013-02-03 23:58:00,44.5,42.9,30.25,SW,218,4.0,6.0,94,0.00,,---,0.04,VWS V14.01,2013-02-04 07:58:00,